Location: Boiro
(42.6475°N, 8.8834°W)
Time: 17:24:59
(UTC+01:00)

Tiros 1 - Pass Details

Date: 08 December 2021
Orbit: 630 x 663 km, 48.4° (Epoch: 20 January)

Event Time Altitude Azimuth Distance (km) Brightness Sun altitude
Rises 18:02:23 0° 224° (SW) 2,903 12.5 -0.9°
Reaches altitude 10° 18:04:44 10° 219° (SW) 2,000 11.2 -1.3°
Maximum altitude 18:09:11 49° 145° (SE) 813 7.7 -2.0°
Drops below altitude 10° 18:13:40 10° 70° (ENE) 2,022 9.1 -2.7°
Enters shadow 18:15:10 - 67° (ENE) 2,600 9.6 -3.0°
Sets 18:16:03 0° 66° (ENE) 2,938 - -3.1°
